Regional Weather Roundup
Issued by NWS Bismarck, ND

Home | Current Version | Previous Version | Text Only | Print | Product List | Glossary On
Versions: 1 2 3 4 5 6 7 8 9 10 11 12 13 14 15 16 17 18 19 20 21 22 23 24 25 26 27 28 29 30 31 32 33 34 35 36 37 38 39 40 41 42 43 44 45 46 47 48 49 50
000
ASUS43 KBIS 200310
RWRBIS

NWR BROADCAST TEXT
NATIONAL WEATHER SERVICE BISMARCK ND
900 PM CST SUN FEB 19 2017

NOTE: "FAIR" INDICATES FEW OR NO CLOUDS BELOW 12,000 FEET WITH NO
SIGNIFICANT WEATHER AND/OR OBSTRUCTIONS TO VISIBILITY.


CITY           SKY/WX    TMP DP  RH WIND       PRES   REMARKS
WILLISTON      FOG       33  32  96 CALM      29.56R VSB 1/4
MINOT          FAIR      32  31  96 CALM      29.53R
MINOT AFB      FAIR      28  28 100 W5        29.52R
BISMARCK       FAIR      37  34  89 E10       29.52F
DICKINSON      FAIR      41  35  79 N5        29.47S
GARRISON         N/A     33  31  92 N5        29.50F
HETTINGER ARPT CLOUDY    39  34  82 E5        29.50R
JAMESTOWN      FAIR      43  41  93 SE12      29.55S
CARRINGTON     FAIR      39  39 100 SE10      29.57S
HAZEN            N/A    N/A N/A N/A CALM      29.53R
MANDAN         FAIR      37  36  93 E7        29.52S
RUGBY            N/A     34  34 100 SE7       29.53F FOG
STANLEY        FOG       32  32 100 CALM      29.56R VSB<1/4
TIOGA          FOG       32  32 100 SE3       29.56R VSB 1/4
WATFORD CITY   FAIR      32  32 100 W3        29.54R
$$

CITY           SKY/WX    TMP DP  RH WIND       PRES   REMARKS
GRAND FORKS    MOCLDY    41  34  76 SE15      29.61F
GRAND FORKS AF FAIR      41  37  87 S13       29.60F
DEVILS LAKE    FOG       36  36 100 SE10      29.55F VSB 3/4
FARGO          FAIR      53  47  79 SE22G36   29.62F
CAVALIER       CLOUDY    39  32  75 SE8       29.62S
GRAFTON        FAIR      37  36  93 SE13      29.63F
GWINNER        FAIR      45  45 100 E7        29.60S
ROLLA          CLOUDY    32  32 100 SE5       29.56S
$$

CITY           SKY/WX    TMP DP  RH WIND       PRES   REMARKS
ABERDEEN       FAIR      52  46  80 S17       29.57S
MOBRIDGE       FAIR      45  35  68 SE8       29.50R
BUFFALO          N/A     49  36  61 W3        29.45R
RAPID CITY     FAIR      53  34  48 SW6       29.56R
GLASGOW        FOG       30  30 100 VRB5      29.56S VSB 1/4
SIDNEY         FAIR      34  32  92 NW12      29.56R
WOLF POINT     FOG       34  32  92 SW3       29.57S VSB 1/4
GLENDIVE       FAIR      41  36  82 NW12      29.54R
MILES CITY     CLOUDY    46  36  68 NW8       29.55R
BAKER          CLOUDY    40  35  83 SW3       29.53R
$$

CITY           SKY/WX    TMP DP  RH WIND       PRES   REMARKS
BILLINGS       MOCLDY    42  28  57 NW7       29.61R
GREAT FALLS    FAIR      34  21  59 SW7       29.57R
REGINA         DRIZZLE   32  32 100 SE8       29.56S
ESTEVAN        FOG       32  32 100 SE5       29.55S VSB 1
$$





USA.gov is the U.S. government's official web portal to all federal, state and local government web resources and services.